Stations météo

réclame
Mon MeteoGroup
F16-A, Pays-Bas (6206): Température de l'air & dewpoint: 10.07.2020 01:00:00 - 16.07.2020 01:00:00 (CEST)F16-A, Pays-Bas (6206): Vitesse du vent & gusts: 10.07.2020 01:00:00 - 16.07.2020 01:00:00 (CEST)F16-A, Pays-Bas (6206): Direction du vent: 10.07.2020 01:00:00 - 16.07.2020 01:00:00 (CEST)F16-A, Pays-Bas (6206): reduced air pressure: 10.07.2020 01:00:00 - 16.07.2020 01:00:00 (CEST)F16-A, Pays-Bas (6206): visibility: 10.07.2020 01:00:00 - 16.07.2020 01:00:00 (CEST)
Date & Time tt [°C] td [°C] ff [km/h] ff [knt] fx [km/h] fx [knt] dd ppp [hPa] vv [km]
16.07.2020 01:00:00 14,0 13,1 18 10 22 12 SSW 1015,0 9
16.07.2020 00:00:00 14,3 13,0 13 7 22 12 SW 1014,7 10
15.07.2020 23:00:00 15,5 12,5 15 8 18 10 - 1014,6 10
15.07.2020 22:00:00 15,2 12,1 13 7 14 8 SW 1014,6 10
15.07.2020 21:00:00 15,2 12,1 11 6 14 8 SW 1014,7 50
15.07.2020 20:00:00 15,3 12,2 15 8 14 8 SW 1014,6 10
15.07.2020 19:00:00 15,1 11,8 15 8 14 8 SW 1014,3 10
15.07.2020 18:00:00 15,1 12,4 13 7 18 10 WSW 1014,5 10
15.07.2020 17:00:00 15,1 12,6 15 8 18 10 SW 1014,5 10
15.07.2020 16:00:00 15,2 12,6 16 9 22 12 SW 1014,7 10
15.07.2020 15:00:00 15,0 11,7 18 10 18 10 SSW 1014,6 10
15.07.2020 14:00:00 14,9 10,9 15 8 18 10 SSW 1014,7 10
15.07.2020 13:00:00 14,6 10,3 15 8 18 10 SSW 1014,5 10
15.07.2020 12:00:00 14,2 10,0 13 7 18 10 - 1014,3 10
15.07.2020 11:00:00 14,1 10,0 8 4 11 6 SSW 1014,3 10
15.07.2020 10:00:00 14,3 9,9 2 1 4 2 - 1014,0 10
15.07.2020 09:00:00 14,6 9,9 8 4 11 6 WNW 1013,8 10
15.07.2020 08:00:00 14,7 10,2 11 6 14 8 WNW 1013,7 10
15.07.2020 07:00:00 14,8 10,4 11 6 14 8 WNW 1013,7 10
15.07.2020 06:00:00 13,9 10,1 13 7 18 10 WNW 1013,4 10
15.07.2020 05:00:00 13,9 10,2 15 8 18 10 WNW 1013,4 10
15.07.2020 04:00:00 14,1 10,3 16 9 18 10 NW 1013,5 10
15.07.2020 03:00:00 13,9 11,1 15 8 14 8 WNW 1013,7 10
15.07.2020 02:00:00 13,7 11,7 9 5 11 6 NW 1013,8 10
15.07.2020 01:00:00 13,6 11,5 9 5 11 6 NW 1014,0 10
15.07.2020 00:00:00 13,6 11,5 8 4 11 6 NW 1014,1 10
14.07.2020 23:00:00 13,7 11,3 11 6 18 10 NNW 1014,0 10
14.07.2020 22:00:00 13,8 11,4 15 8 18 10 NNW 1013,8 10
14.07.2020 21:00:00 13,3 11,9 24 13 29 16 NW 1013,7 10
14.07.2020 20:00:00 14,5 12,4 9 5 22 12 WNW 1013,6 10
14.07.2020 19:00:00 13,9 11,8 24 13 25 14 NW 1013,6 10
14.07.2020 18:00:00 14,4 11,8 18 10 22 12 NW 1013,6 10
14.07.2020 17:00:00 14,8 12,4 21 11 22 12 W 1013,7 10
14.07.2020 16:00:00 14,9 11,5 22 12 22 12 W 1013,8 10
14.07.2020 15:00:00 14,6 10,6 22 12 22 12 W 1014,0 10
14.07.2020 14:00:00 14,6 10,7 21 11 22 12 W 1014,0 10
14.07.2020 13:00:00 14,9 11,2 21 11 22 12 W 1014,0 10
14.07.2020 12:00:00 15,0 11,4 22 12 22 12 W 1014,2 10
14.07.2020 11:00:00 15,4 12,2 16 9 18 10 W 1014,0 10
14.07.2020 10:00:00 15,7 12,6 22 12 25 14 WNW 1014,1 10
14.07.2020 09:00:00 15,3 12,7 26 14 25 14 WNW 1014,0 10
14.07.2020 08:00:00 15,6 13,8 18 10 25 14 WNW 1014,0 10
14.07.2020 07:00:00 15,4 13,9 18 10 22 12 W 1014,0 10
14.07.2020 06:00:00 15,3 13,6 22 12 22 12 W 1014,1 10
14.07.2020 05:00:00 15,5 13,7 21 11 22 12 W 1014,4 10
14.07.2020 04:00:00 15,9 14,4 21 11 25 14 WSW 1014,8 10
14.07.2020 03:00:00 15,8 15,0 26 14 29 16 WSW 1015,3 10
14.07.2020 02:00:00 16,0 15,1 31 17 36 19 SW 1015,4 10
14.07.2020 01:00:00 15,9 14,8 34 18 32 18 - 1016,0 10
14.07.2020 00:00:00 15,8 14,8 35 19 36 19 - 1016,5 10
13.07.2020 23:00:00 15,9 14,6 37 20 36 19 - 1017,0 10
13.07.2020 22:00:00 15,8 14,7 35 19 36 19 - 1017,5 10
13.07.2020 21:00:00 15,8 14,7 28 15 29 16 - 1017,7 10
13.07.2020 20:00:00 15,7 14,3 25 14 36 19 SSW 1018,2 18
13.07.2020 19:00:00 15,9 14,5 29 16 32 18 SSW 1018,6 21
13.07.2020 18:00:00 15,9 14,6 29 16 29 16 SSW 1019,2 10
13.07.2020 17:00:00 16,0 14,4 29 16 32 18 SSW 1019,8 10
13.07.2020 16:00:00 16,0 14,0 31 17 32 18 SSW 1020,4 10
13.07.2020 15:00:00 15,8 13,6 37 20 40 21 SSW 1020,9 10
13.07.2020 14:00:00 15,8 13,3 37 20 40 21 SSW 1021,5 10
13.07.2020 13:00:00 15,8 12,9 39 21 40 21 - 1022,0 10
13.07.2020 12:00:00 15,8 12,6 39 21 40 21 SSW 1022,5 10
13.07.2020 11:00:00 15,6 12,3 37 20 40 21 SSW 1023,1 10
13.07.2020 10:00:00 15,5 11,9 37 20 36 19 SSW 1023,4 10
13.07.2020 09:00:00 15,5 11,5 35 19 36 19 SSW 1023,7 10
13.07.2020 08:00:00 15,3 11,3 31 17 32 18 SSW 1023,9 10
13.07.2020 07:00:00 15,4 11,3 24 13 25 14 - 1024,4 10
13.07.2020 06:00:00 15,3 11,8 18 10 18 10 SW 1024,6 10
13.07.2020 05:00:00 15,2 11,6 14 8 18 10 SW 1024,8 50
13.07.2020 04:00:00 14,6 12,2 9 5 11 6 SW 1025,6 10
13.07.2020 03:00:00 14,5 12,0 8 4 11 6 SW 1026,0 10
13.07.2020 02:00:00 14,4 11,6 11 6 11 6 SW 1026,3 10
13.07.2020 01:00:00 14,5 11,3 11 6 11 6 SW 1026,8 10
13.07.2020 00:00:00 14,5 10,8 11 6 14 8 SW 1027,1 10
12.07.2020 23:00:00 14,6 10,9 11 6 11 6 SW 1027,5 10
12.07.2020 22:00:00 14,6 11,6 8 4 7 4 SW 1027,7 10
12.07.2020 21:00:00 14,8 11,5 8 4 7 4 WSW 1027,6 10
12.07.2020 20:00:00 15,1 11,6 5 3 7 4 W 1027,7 10
12.07.2020 19:00:00 15,4 11,9 8 4 11 6 W 1028,0 10
12.07.2020 18:00:00 15,4 11,8 11 6 11 6 W 1028,2 10
12.07.2020 17:00:00 15,5 12,3 13 7 14 8 W 1028,5 10
12.07.2020 16:00:00 15,1 12,0 16 9 18 10 W 1028,8 10
12.07.2020 15:00:00 15,2 12,7 18 10 18 10 SW 1029,0 10
12.07.2020 14:00:00 15,3 12,2 22 12 22 12 SW 1029,1 10
12.07.2020 13:00:00 15,0 12,1 16 9 18 10 SW 1028,8 10
12.07.2020 12:00:00 14,8 12,0 15 8 18 10 WSW 1028,6 10
12.07.2020 11:00:00 14,8 11,5 18 10 18 10 WSW 1028,4 10
12.07.2020 10:00:00 14,7 10,7 18 10 18 10 WSW 1028,5 10
12.07.2020 09:00:00 14,7 11,0 16 9 18 10 WSW 1028,2 10
12.07.2020 08:00:00 14,6 10,9 16 9 18 10 WSW 1027,6 10
12.07.2020 07:00:00 14,5 10,8 13 7 14 8 W 1027,4 10
12.07.2020 06:00:00 14,2 10,5 13 7 18 10 W 1027,3 10
12.07.2020 05:00:00 13,9 10,8 13 7 18 10 W 1027,1 10
12.07.2020 04:00:00 13,9 10,3 16 9 18 10 WNW 1027,1 10
12.07.2020 03:00:00 13,9 10,4 15 8 18 10 W 1027,3 10
12.07.2020 02:00:00 13,9 10,5 15 8 18 10 W 1027,4 10
12.07.2020 01:00:00 14,0 10,4 15 8 14 8 W 1027,3 10
12.07.2020 00:00:00 14,2 10,2 15 8 22 12 W 1027,4 10
11.07.2020 23:00:00 14,3 10,4 15 8 18 10 W 1027,1 10
11.07.2020 22:00:00 14,6 10,6 15 8 18 10 WNW 1026,8 10
11.07.2020 21:00:00 14,7 10,3 21 11 22 12 WNW 1026,4 10
11.07.2020 20:00:00 14,9 9,7 22 12 25 14 WNW 1026,3 10
11.07.2020 19:00:00 14,8 9,9 24 13 25 14 NW 1026,0 10
11.07.2020 18:00:00 14,6 10,2 24 13 29 16 NW 1025,8 10
11.07.2020 17:00:00 14,6 10,2 22 12 29 16 NW 1025,5 41
11.07.2020 16:00:00 14,7 10,8 26 14 29 16 NW 1025,1 10
11.07.2020 15:00:00 14,9 11,2 22 12 25 14 WNW 1024,8 43
11.07.2020 14:00:00 14,6 11,6 16 9 18 10 W 1024,4 10
11.07.2020 13:00:00 14,2 11,2 15 8 18 10 W 1024,0 10
11.07.2020 12:00:00 14,1 10,9 16 9 14 8 WSW 1023,6 10
11.07.2020 11:00:00 13,9 10,7 15 8 14 8 W 1023,3 10
11.07.2020 10:00:00 13,9 10,5 15 8 14 8 WSW 1022,8 10
11.07.2020 09:00:00 13,8 10,2 13 7 14 8 W 1022,4 10
11.07.2020 08:00:00 13,9 10,3 11 6 14 8 W 1021,8 48
11.07.2020 07:00:00 13,7 10,0 13 7 18 10 W 1021,6 10
11.07.2020 06:00:00 13,3 9,9 14 8 18 10 W 1021,1 46
11.07.2020 05:00:00 13,5 10,1 18 10 25 14 W 1020,6 10
11.07.2020 04:00:00 13,5 9,5 24 13 25 14 WNW 1020,4 10
11.07.2020 03:00:00 13,7 10,0 18 10 29 16 WNW 1020,5 50
11.07.2020 02:00:00 13,5 9,2 24 13 29 16 WNW 1020,2 10
11.07.2020 01:00:00 13,5 9,2 29 16 32 18 WNW 1019,9 10
11.07.2020 00:00:00 13,6 9,1 29 16 29 16 WNW 1019,6 10
10.07.2020 23:00:00 13,7 9,1 29 16 29 16 WNW 1019,4 10
10.07.2020 22:00:00 13,9 8,8 22 12 29 16 WNW 1019,0 10
10.07.2020 21:00:00 14,1 8,5 26 14 29 16 WNW 1018,6 10
10.07.2020 20:00:00 14,3 8,8 29 16 29 16 WNW 1018,2 10
10.07.2020 19:00:00 14,2 9,0 28 15 29 16 WNW 1017,9 10
10.07.2020 18:00:00 14,3 9,0 28 15 29 16 WNW 1017,5 10
10.07.2020 17:00:00 13,9 9,3 26 14 29 16 WNW 1016,9 10
10.07.2020 16:00:00 13,6 8,7 29 16 32 18 NW 1016,3 10
10.07.2020 15:00:00 13,5 8,6 35 19 36 19 NW 1015,8 10
10.07.2020 14:00:00 13,4 9,0 35 19 36 19 NW 1015,1 10
10.07.2020 13:00:00 13,5 9,5 22 12 29 16 NW 1014,6 10
10.07.2020 12:00:00 14,0 8,0 31 17 - - NNW 1014,0 10
10.07.2020 11:00:00 13,5 8,3 28 15 29 16 NNW 1013,1 10
10.07.2020 10:00:00 13,3 7,8 24 13 29 16 NNW 1012,6 10
10.07.2020 09:00:00 13,1 8,3 31 17 32 18 NNE 1012,2 10
10.07.2020 08:00:00 12,1 8,4 35 19 32 18 NNE 1011,8 10
10.07.2020 07:00:00 13,3 8,4 26 14 29 16 NE 1011,3 10
10.07.2020 06:00:00 13,2 8,4 26 14 29 16 NE 1010,8 10
10.07.2020 05:00:00 13,1 8,0 29 16 29 16 NE 1011,0 10
10.07.2020 04:00:00 13,1 8,6 34 18 32 18 NE 1011,0 10
10.07.2020 03:00:00 13,1 8,4 31 17 40 21 NE 1011,5 10
10.07.2020 02:00:00 13,2 8,7 37 20 36 19 NE 1011,3 10
10.07.2020 01:00:00 13,4 9,3 34 18 36 19 ENE 1011,9 10

tt = Température de l'air
td = dewpoint
ff = Vitesse du vent
fx = gusts
dd = Direction du vent
ppp = reduced air pressure
vv = visibility

stations d'obs. à proximité